Location: Katowice
(50.2611°N, 19.0242°E)
Time: 03:08:00
(UTC+02:00)

A-11 Canister half - Pass Details

Date: 27 July 2019
Orbit: 1526 x 1683 km, 47.3° (Epoch: 19 August)

Event Time Altitude Azimuth Distance (km) Brightness Sun altitude
Rises 00:28:40 0° 281° (W) 4,891 11.9 -20.2°
Reaches altitude 10° 00:31:52 10° 278° (W) 3,884 11.3 -20.3°
Maximum altitude 00:41:33 62° 202° (SSW) 1,772 9.0 -20.4°
Drops below altitude 10° 00:50:53 10° 124° (SE) 3,754 10.7 -20.4°
Sets 00:53:57 0° 121° (ESE) 4,719 11.3 -20.4°
